Lapse_Rate
4.5 2.9 2.6 4.1 3.1 4.0 4.6 4.5 4.6 4.6 4.3 5.0 6.3 7.1 7.0 6.8 6.1 5.9 5.9 5.6 5.8 6.2 6.6 6.5 6.1 5.8 6.0 5.3 4.5 4.2 4.2 4.6 4.8 5.1 5.2 5.4 6.1 6.4 7.2 7.9 7.4 7.0 7.2
6.1 3.0 2.7 3.7 3.2 3.7 4.1 4.2 4.5 4.5 4.3 4.0 4.7 6.3 7.4 7.2 6.8 6.3 6.3 6.5 6.8 7.0 7.0 6.5 6.0 6.0 5.6 4.9 4.3 4.3 4.3 4.9 4.9 5.1 5.4 5.8 5.9 6.1 6.6 7.1 6.1 7.0 7.1
5.6 3.3 2.2 3.8 3.7 2.8 4.1 4.0 4.0 4.0 4.3 4.3 3.3 4.8 6.1 7.4 6.6 6.8 6.9 6.9 7.2 7.2 6.3 6.3 6.2 5.9 5.2 4.8 4.4 4.4 4.8 5.4 5.4 5.9 6.7 6.5 5.5 6.3 6.6 6.4 6.5 7.9 7.2
6.3 5.9 3.4 6.2 4.9 3.0 3.8 4.1 4.0 3.8 3.9 4.1 3.9 3.7 5.0 6.2 7.0 5.9 5.8 6.9 6.8 6.7 7.1 6.4 6.3 5.5 5.0 4.7 4.6 4.6 5.1 5.8 6.1 6.7 8.6 7.5 6.2 6.4 6.4 6.3 7.3 7.5 6.9
5.6 4.9 5.5 5.1 5.4 3.3 4.1 4.6 3.9 4.0 3.6 3.6 4.0 4.3 4.9 5.2 6.1 5.5 4.6 5.4 6.3 5.8 6.6 6.4 6.3 5.3 4.8 4.8 4.5 4.9 5.9 6.8 7.1 8.4 7.8 8.9 7.5 6.4 6.6 7.2 7.5 7.2 6.8
7.7 5.7 6.6 6.3 5.2 6.0 5.6 4.9 3.9 3.3 3.4 3.5 3.7 3.9 4.4 4.6 5.4 5.1 4.1 4.6 4.9 5.6 5.0 4.8 5.3 5.6 5.2 4.9 4.6 5.4 6.4 6.9 8.0 8.1 7.0 8.7 8.0 6.8 7.2 7.3 7.2 7.2 7.0
9.4 9.2 8.0 6.6 7.4 5.7 7.7 5.1 4.5 3.8 3.0 3.0 3.3 3.5 3.7 4.5 4.3 4.7 4.7 4.8 4.6 5.2 5.7 5.4 5.0 5.5 6.4 5.2 4.8 6.0 6.4 6.5 8.3 7.1 6.2 6.8 7.1 7.2 7.2 7.8 7.1 6.9 7.2
9.4 9.1 7.8 7.9 7.0 6.9 6.6 5.6 5.2 4.4 3.4 2.8 2.6 2.4 3.5 3.9 3.8 3.6 4.7 4.9 4.8 4.9 4.6 5.2 4.9 5.5 6.9 5.3 5.1 6.2 6.0 6.2 8.3 7.1 6.5 5.9 6.4 7.2 7.3 7.8 7.1 7.0 7.0
9.2 9.2 8.8 7.7 5.9 5.9 7.1 7.3 6.2 4.5 4.1 2.9 2.4 1.9 2.8 3.7 3.2 3.7 4.2 4.5 4.8 4.9 4.7 4.9 5.2 5.2 7.2 6.0 5.4 5.7 5.7 6.1 7.1 8.3 6.4 5.0 6.1 7.0 7.1 7.3 7.3 7.1 7.0
8.5 9.2 8.9 8.9 7.9 7.0 7.8 6.6 8.3 6.4 4.3 3.4 2.4 1.7 1.3 2.7 3.3 2.8 3.2 3.5 4.4 4.7 5.6 5.3 4.7 4.2 6.7 6.8 5.8 5.5 5.3 5.8 6.4 8.4 6.3 4.5 5.8 7.0 7.4 7.3 7.3 7.2 7.2
9.0 8.8 9.2 8.7 9.0 8.4 9.5 8.1 7.7 7.2 7.3 4.0 2.2 1.5 0.4 0.9 2.2 2.2 3.4 2.7 2.9 4.2 5.4 5.6 4.6 4.7 6.3 6.1 5.9 5.5 4.7 5.3 8.6 7.8 5.3 4.8 5.8 6.9 7.5 7.4 7.3 7.3 7.5
8.9 8.8 9.2 8.6 9.1 9.2 9.3 9.1 8.1 8.8 8.3 5.7 3.0 2.1 1.0 0.3 1.9 1.4 2.1 2.0 1.8 3.3 5.5 6.2 5.8 5.8 6.5 4.4 4.9 4.9 3.6 7.9 8.3 6.8 4.5 5.0 5.8 7.0 7.4 7.5 7.4 7.6 7.3
9.1 8.8 9.6 9.2 9.2 9.5 9.1 9.2 8.5 9.3 9.1 8.5 6.6 2.7 1.7 1.4 1.1 1.4 1.1 1.0 0.6 2.5 4.9 6.7 6.3 6.2 6.3 4.6 5.2 4.5 4.6 7.4 8.5 6.0 4.5 5.0 5.8 7.3 7.8 7.6 7.9 8.0 7.5
9.2 9.0 9.5 9.7 8.9 9.3 9.4 9.3 9.0 9.3 9.1 8.7 7.9 6.1 3.9 2.6 1.5 0.4 0.4 0.4 0.5 1.4 2.3 6.0 7.3 7.0 7.6 5.1 4.8 4.3 4.2 6.6 7.6 5.1 4.0 5.0 6.0 7.2 7.6 7.8 7.8 7.9 7.3
9.0 8.9 8.8 9.5 8.9 9.3 9.3 9.3 9.3 9.1 9.2 8.7 9.3 7.3 5.5 4.1 2.2 1.6 0.6 0.5 0.4 0.1 0.7 2.0 3.9 7.0 7.0 5.8 5.3 4.5 3.9 4.7 7.3 5.0 4.1 5.1 6.0 7.0 7.6 7.8 8.0 7.6 7.5
9.1 9.1 8.4 9.4 9.0 9.0 9.2 9.1 9.2 9.4 9.2 9.2 9.4 7.9 7.2 5.4 3.6 2.7 1.4 0.7 0.5 -0.0 -0.2 0.6 2.1 4.2 6.4 4.8 4.4 5.0 4.2 4.4 5.7 5.8 4.1 4.7 5.9 6.9 7.5 7.8 8.0 7.6 7.7
9.2 9.3 8.4 9.0 8.9 8.7 9.3 9.3 9.3 9.4 9.4 8.9 9.4 8.9 7.2 6.4 5.0 3.2 2.0 1.7 0.3 -0.6 -0.3 0.6 2.0 4.2 5.2 5.1 4.5 4.4 4.1 4.8 4.9 6.3 4.8 4.9 5.3 7.0 7.5 8.1 7.6 7.5 7.6
9.3 8.9 9.1 9.5 9.1 8.7 9.2 9.3 9.4 9.5 9.3 9.3 9.4 9.4 7.5 6.8 6.4 4.7 3.0 2.3 0.7 0.2 0.2 0.7 1.6 3.3 4.9 5.2 4.4 4.2 3.9 4.3 4.8 6.3 5.7 5.5 5.5 6.1 7.3 8.0 7.8 7.2 7.2
9.2 8.8 8.9 8.8 9.0 8.6 9.3 9.4 9.4 9.5 9.4 9.3 9.3 9.4 8.5 7.7 6.7 5.5 4.2 2.3 2.1 1.2 0.7 0.4 0.6 1.7 4.8 5.5 4.9 4.4 4.4 4.0 4.7 5.4 7.1 6.3 5.9 6.4 6.4 7.2 7.7 7.0 7.0
9.2 8.8 8.9 8.9 8.8 9.0 9.2 9.3 9.4 9.3 9.4 9.4 9.3 9.4 9.3 8.1 7.1 6.6 5.2 3.6 2.6 2.0 1.6 1.0 0.6 0.7 3.5 5.1 6.4 5.4 4.9 5.1 4.6 4.0 5.4 7.5 7.0 6.3 7.2 6.6 6.7 6.6 7.0
8.7 8.6 8.8 8.5 7.7 9.0 9.0 8.7 8.8 8.8 8.9 8.8 9.2 9.4 9.4 8.4 7.5 7.0 5.4 4.3 3.2 2.0 2.5 2.0 1.6 1.3 3.0 4.2 5.2 5.2 5.0 4.9 3.9 3.6 6.0 6.4 7.1 7.1 7.5 6.5 6.0 6.1 5.9
8.5 8.2 8.8 8.3 8.3 9.1 9.6 8.9 8.9 8.8 9.1 9.0 9.2 9.1 9.2 9.1 7.6 7.6 6.0 4.7 3.9 2.4 3.4 2.4 1.5 1.5 2.6 4.5 5.1 4.8 6.1 6.2 5.8 6.0 6.0 5.2 6.3 7.0 7.1 6.9 6.8 6.6 6.2
8.4 8.0 8.6 8.3 9.0 10.2 8.6 9.0 9.0 9.0 8.9 9.1 8.8 8.5 9.6 9.4 7.6 7.2 6.9 6.1 4.6 3.2 2.9 2.3 1.7 1.7 2.4 4.2 4.7 4.4 5.9 5.9 6.1 5.0 5.9 5.7 6.1 6.7 7.6 7.5 7.3 6.8 6.4
8.4 8.3 7.8 7.9 8.7 9.3 8.9 8.9 8.5 8.6 9.3 8.8 8.7 8.9 8.8 8.1 8.2 8.0 7.3 7.3 6.6 4.1 3.1 1.8 1.8 1.8 1.8 1.8 4.5 4.6 4.8 5.3 5.9 6.0 5.5 5.0 5.6 6.9 6.2 7.2 7.6 6.6 6.6
8.8 8.3 7.8 8.9 8.4 10.0 8.6 9.2 8.9 8.7 8.8 9.0 9.0 9.0 8.8 9.2 9.2 8.5 7.8 7.6 7.3 4.8 3.2 2.2 1.7 1.5 1.8 2.6 2.3 5.5 4.8 4.1 4.6 5.4 6.0 5.5 5.7 6.4 6.3 7.1 7.4 7.6 8.7
9.0 8.5 8.3 8.2 9.0 9.2 9.1 9.1 9.5 8.6 8.6 8.7 8.5 8.3 8.4 8.3 8.6 8.0 7.9 7.7 7.5 5.7 3.6 2.1 1.4 1.4 1.9 1.9 1.8 2.7 5.4 5.2 5.4 4.3 5.1 5.8 5.3 6.3 6.7 5.8 6.5 7.4 8.2
Wind_Speed
12 24 33 35 38 38 40 38 36 35 34 30 19 5 3 1 2 2 4 5 7 9 11 11 10 11 12 15 20 21 22 22 24 24 23 22 20 16 14 19 22 21 20
16 19 30 33 35 36 37 38 37 34 34 33 30 18 5 4 2 2 4 5 6 7 10 12 12 13 13 15 18 19 20 21 23 23 22 20 17 17 21 24 24 20 20
17 11 22 31 33 35 36 36 36 35 33 32 30 28 19 6 2 1 1 3 4 6 11 12 13 14 15 15 17 18 19 20 22 22 20 17 15 16 20 23 21 21 19
7 13 14 25 27 32 36 36 35 34 33 32 31 28 27 19 2 7 10 4 5 6 9 11 13 14 15 16 17 18 17 18 19 17 16 15 15 14 17 19 20 19 19
6 10 15 26 32 33 34 32 33 33 32 32 32 29 26 26 5 9 10 9 8 10 4 4 11 15 15 16 18 18 19 19 17 14 17 13 15 13 17 18 19 21 22
6 9 16 22 26 25 24 28 34 33 32 31 30 29 27 25 12 9 10 6 5 4 5 5 4 11 16 16 17 19 17 14 12 17 15 12 16 13 13 17 23 25 20
12 12 17 23 21 21 21 28 31 31 33 31 31 30 27 24 23 4 14 8 8 5 7 3 2 5 15 15 15 18 15 14 13 16 16 18 15 12 16 20 25 23 20
13 15 17 20 23 20 15 28 26 27 31 31 31 31 28 24 24 22 7 9 13 15 10 10 10 11 14 15 16 17 15 12 10 18 15 17 15 14 16 19 24 21 20
14 13 16 20 26 27 23 24 21 22 27 29 31 32 28 23 25 23 22 17 11 15 20 18 12 13 14 14 15 17 15 14 4 10 17 17 16 16 18 18 22 19 21
13 14 14 18 19 23 20 26 20 18 24 27 28 32 30 25 23 24 21 21 18 13 24 18 14 16 18 18 17 18 16 13 11 19 18 21 18 16 19 17 19 19 21
9 12 15 17 19 21 18 20 23 14 16 22 25 30 26 24 22 22 20 22 22 21 23 21 17 21 20 17 17 18 15 9 13 16 16 25 21 18 19 18 21 19 20
9 11 14 16 19 21 21 19 20 20 15 14 18 20 21 26 22 21 21 23 22 23 19 18 16 20 18 11 12 15 8 7 9 15 16 23 20 19 19 19 22 19 21
9 9 12 15 19 19 20 19 18 17 15 14 16 18 20 19 20 18 17 18 18 20 11 10 12 12 12 11 11 9 7 8 4 15 20 22 20 18 21 19 21 19 20
9 8 10 15 16 18 19 18 18 16 13 16 6 16 14 13 15 18 15 17 16 16 15 8 11 13 13 13 12 8 7 11 10 13 20 22 20 20 18 19 19 19 19
7 6 9 12 13 16 20 16 17 15 13 18 11 14 12 12 10 16 16 16 15 15 14 12 9 12 11 11 9 5 6 8 5 14 17 19 21 20 20 19 17 18 19
7 5 7 7 11 14 15 18 17 17 14 17 12 10 12 14 11 10 13 14 14 16 15 13 9 7 5 9 6 7 6 3 7 13 17 17 18 20 20 19 18 20 20
8 5 5 3 9 10 11 14 16 17 15 17 12 7 12 14 13 11 12 11 14 18 17 13 9 9 2 7 7 7 7 5 5 14 19 15 16 20 21 20 18 20 19
7 4 3 4 6 9 8 11 13 16 14 15 13 9 12 12 16 12 8 9 17 15 13 8 5 6 5 7 7 6 6 5 4 10 20 20 16 14 18 19 18 21 20
6 4 5 3 3 6 8 10 12 15 12 15 16 10 10 9 13 11 8 11 15 13 10 7 5 6 6 7 7 7 4 3 1 8 12 17 20 18 16 19 20 21 22
6 4 4 1 4 4 6 7 9 12 12 14 15 10 8 8 10 13 8 10 13 7 7 7 7 6 7 3 6 6 5 3 2 4 7 14 18 20 19 20 19 19 22
4 5 4 4 9 8 7 5 5 6 7 6 13 11 12 6 7 10 9 10 11 7 9 7 4 5 5 4 3 3 2 4 4 7 11 7 10 15 17 20 18 16 20
11 7 3 5 7 4 2 4 5 5 8 8 11 13 10 4 6 7 8 6 8 6 8 8 7 3 3 7 4 3 3 1 3 7 4 7 7 13 17 19 20 19 18
10 10 8 9 8 2 7 4 3 7 7 6 6 7 9 11 12 7 8 8 8 7 6 8 7 6 3 3 7 4 3 4 3 3 5 6 6 5 13 18 17 20 21
9 8 11 10 6 7 8 8 7 5 5 7 7 7 11 23 10 7 9 8 6 6 7 7 7 6 4 5 3 4 1 3 3 2 2 4 6 6 7 7 14 19 22
7 7 6 6 10 6 5 1 4 6 6 7 6 10 5 8 13 13 11 8 5 5 6 7 8 8 4 4 4 4 5 2 2 2 3 3 4 4 5 5 10 8 13
8 6 6 6 3 4 4 5 5 6 7 7 7 7 7 6 7 12 12 10 8 6 6 6 7 9 7 5 4 6 8 8 6 3 1 5 8 7 6 4 6 11 13
Wind_Direction
343 356 350 352 357 358 1 2 4 7 10 11 3 343 331 304 152 141 132 143 163 167 148 135 120 107 99 90 93 98 97 98 94 90 89 90 90 87 99 111 100 100 97
342 6 350 351 359 359 2 3 4 6 9 12 13 4 351 302 246 158 154 175 189 186 124 122 124 120 108 102 99 101 102 101 99 96 95 91 83 78 80 84 96 99 96
345 9 348 356 7 1 6 2 3 6 9 11 13 15 4 328 283 100 113 156 153 142 146 130 131 125 116 111 110 113 114 116 117 122 120 102 90 89 89 96 105 100 103
354 355 359 354 15 4 7 4 1 4 8 10 12 13 13 357 319 88 51 64 110 135 151 142 141 129 126 123 124 127 131 134 135 140 98 104 101 94 99 105 106 106 108
9 355 2 10 12 17 5 1 3 3 6 11 13 13 15 8 77 106 77 32 59 48 74 123 158 137 129 133 136 143 153 150 150 118 111 108 108 108 116 119 115 114 107
68 22 12 23 15 9 4 6 9 3 3 11 12 13 13 13 6 131 131 127 167 128 52 54 45 141 143 145 151 162 164 158 135 105 101 86 104 124 129 116 108 103 106
40 35 19 21 19 13 354 20 10 7 2 7 10 11 14 10 11 332 170 174 151 191 205 174 224 225 160 159 170 179 174 175 131 120 117 104 114 124 126 119 113 113 114
43 30 25 16 13 15 8 17 9 8 9 4 8 7 9 11 5 11 37 194 219 210 171 217 197 235 178 171 187 190 192 201 171 120 121 111 129 132 129 124 116 118 120
55 39 39 20 8 1 3 19 6 11 14 11 6 7 4 8 4 5 6 5 354 218 193 199 182 223 195 182 202 207 207 220 280 126 129 121 135 133 132 126 123 124 121
64 36 42 32 17 358 353 7 3 14 16 18 9 5 5 2 3 356 356 352 336 328 207 190 177 205 212 195 206 224 228 226 231 169 149 136 143 149 141 137 132 131 126
46 40 22 35 16 2 2 8 357 8 18 18 15 6 5 357 351 354 349 347 339 324 213 191 204 209 213 199 208 230 249 275 169 124 125 137 141 150 148 149 139 138 133
32 42 17 38 21 7 355 9 360 353 20 30 25 15 5 357 346 353 345 349 346 340 226 227 201 200 188 185 207 236 268 284 116 120 135 141 139 155 151 148 140 138 135
24 51 22 20 26 13 351 9 353 348 5 348 34 24 12 353 345 351 345 349 344 337 317 191 178 181 185 180 197 230 266 284 132 124 144 142 143 156 155 151 144 143 144
358 45 34 12 33 12 352 7 346 339 5 343 41 41 11 354 351 347 347 339 346 340 338 298 192 197 198 176 189 228 282 305 120 140 148 144 152 152 153 153 149 148 147
348 21 49 17 38 20 351 3 341 332 356 328 352 37 15 355 3 341 342 338 347 342 338 332 330 220 192 165 171 183 306 353 169 150 144 152 161 160 161 163 160 156 156
323 344 64 13 40 35 357 356 333 332 344 327 336 60 23 354 359 348 344 339 342 342 330 321 319 308 180 146 141 158 258 292 293 161 139 154 164 165 165 168 165 162 160
301 345 76 345 41 44 5 345 329 330 341 316 329 27 42 355 352 6 344 331 343 338 327 321 328 304 214 150 155 152 239 238 289 160 144 148 161 167 168 168 168 167 164
289 351 19 351 20 49 356 330 327 313 327 310 332 335 53 9 350 354 339 339 342 332 326 314 332 314 287 163 155 172 225 252 335 245 151 156 158 169 180 174 178 173 168
293 325 302 74 43 43 337 324 334 324 323 328 323 331 25 29 347 350 344 346 332 339 332 327 336 324 302 171 163 170 195 215 106 316 160 158 165 162 175 184 180 177 173
273 267 276 285 60 29 316 341 341 327 331 330 315 323 355 52 2 336 0 343 339 339 335 329 331 327 297 113 163 172 186 218 126 287 166 188 170 165 170 167 171 177 180
298 262 261 62 52 20 325 344 348 331 323 314 314 325 315 84 23 338 6 342 342 353 329 323 318 342 304 142 142 138 196 188 161 274 212 172 164 168 164 168 169 171 187
341 336 318 107 88 4 302 322 355 335 299 303 303 333 307 24 78 4 5 346 340 353 330 342 349 354 300 181 152 94 158 180 223 228 210 167 177 180 161 167 176 174 174
353 10 12 65 54 352 357 331 357 320 320 314 339 310 347 311 96 46 4 355 353 354 332 344 347 352 313 258 180 142 154 200 150 201 200 177 184 172 169 170 179 178 181
4 352 63 53 45 337 355 6 351 313 317 318 321 357 7 24 59 43 9 10 360 346 333 345 340 316 341 316 239 239 116 118 150 164 151 191 187 181 171 178 177 187 191
4 39 86 53 40 301 277 329 318 335 322 326 327 334 346 7 336 27 2 354 352 360 330 343 340 329 315 278 331 229 227 96 22 127 152 178 193 197 191 169 174 215 196
10 27 42 71 281 307 12 348 327 332 330 336 354 329 2 347 351 1 346 342 356 354 338 344 327 314 319 323 325 287 220 194 193 163 125 184 191 190 179 181 180 189 216